Time,TemperatureF,DewpointF,PressureIn,WindDirection,WindDirectionDegrees,WindSpeedMPH,WindSpeedGustMPH,Humidity,HourlyPrecipIn,Conditions,Clouds,dailyrainin,SolarRadiationWatts/m^2,SoftwareType,DateUTC
2013-03-18 00:00:00,62.0,60.6,30.06,NE,42,0.0,2.0,95,0.06,,BKN090,0.06,0.00,VWS V14.01,2013-03-18 04:00:00,
2013-03-18 00:01:00,62.0,60.3,30.06,NE,42,1.0,2.0,94,0.06,,BKN110,0.06,0.00,VWS V14.01,2013-03-18 04:01:00,
2013-03-18 00:06:00,61.8,60.4,30.06,NE,41,0.0,2.0,95,0.06,,BKN110,0.00,0.00,VWS V14.01,2013-03-18 04:06:00,
2013-03-18 00:11:00,61.8,60.4,30.07,NE,45,0.0,2.0,95,0.06,,BKN110,0.00,0.00,VWS V14.01,2013-03-18 04:11:00,
2013-03-18 00:16:00,61.8,60.4,30.06,NE,49,1.0,3.0,95,0.06,,BKN110,0.00,0.00,VWS V14.01,2013-03-18 04:16:00,
2013-03-18 00:21:00,61.8,60.4,30.05,NE,49,2.0,3.0,95,0.06,,OVC110,0.00,0.00,VWS V14.01,2013-03-18 04:21:00,
2013-03-18 00:26:00,61.8,60.4,30.05,NE,51,0.0,3.0,95,0.06,,OVC110,0.00,0.00,VWS V14.01,2013-03-18 04:26:00,
2013-03-18 00:31:00,61.8,60.4,30.04,NE,51,0.0,0.0,95,0.02,,OVC110,0.00,0.00,VWS V14.01,2013-03-18 04:31:00,
2013-03-18 00:37:00,61.7,60.3,30.04,NE,53,0.0,2.0,95,0.02,,OVC110,0.00,0.00,VWS V14.01,2013-03-18 04:37:00,
2013-03-18 00:42:00,61.6,60.2,30.04,NE,53,1.0,2.0,95,0.02,,BKN095,0.00,0.00,VWS V14.01,2013-03-18 04:42:00,
2013-03-18 00:47:00,61.7,60.5,30.03,NE,53,0.0,2.0,96,0.02,,BKN095,0.00,0.00,VWS V14.01,2013-03-18 04:47:00,
2013-03-18 00:52:00,61.7,60.3,30.03,NE,53,2.0,2.0,95,0.02,,BKN095,0.00,0.00,VWS V14.01,2013-03-18 04:52:00,
2013-03-18 00:57:00,61.7,60.3,30.03,ENE,59,2.0,2.0,95,0.02,,BKN095,0.00,0.00,VWS V14.01,2013-03-18 04:57:00,
2013-03-18 01:02:00,61.5,60.1,30.03,ENE,64,1.0,3.0,95,0.00,,BKN085,0.00,0.00,VWS V14.01,2013-03-18 05:02:00,
2013-03-18 01:07:00,61.5,60.1,30.03,ENE,67,1.0,3.0,95,0.00,,BKN085,0.00,0.00,VWS V14.01,2013-03-18 05:07:00,
2013-03-18 01:12:00,61.4,60.0,30.03,SE,128,3.0,4.0,95,0.00,,BKN085,0.00,0.00,VWS V14.01,2013-03-18 05:12:00,
2013-03-18 01:17:00,61.2,59.8,30.02,ESE,108,2.0,5.0,95,0.00,,BKN085,0.00,0.00,VWS V14.01,2013-03-18 05:17:00,
2013-03-18 01:22:00,61.1,59.7,30.02,ESE,115,4.0,5.0,95,0.00,,OVC085,0.00,0.00,VWS V14.01,2013-03-18 05:22:00,
2013-03-18 01:27:00,61.0,59.6,30.02,ESE,112,3.0,5.0,95,0.00,,OVC085,0.00,0.00,VWS V14.01,2013-03-18 05:27:00,
2013-03-18 01:30:00,61.0,59.6,30.02,ESE,115,3.0,5.0,95,0.00,,,0.00,0.00,VWS V15.00,2013-03-18 05:30:00,
2013-03-18 01:32:00,60.9,59.5,30.02,ESE,109,3.0,5.0,95,0.00,,OVC085,0.00,0.00,VWS V14.01,2013-03-18 05:32:00,
2013-03-18 01:37:00,60.8,59.4,30.02,East,88,2.0,5.0,95,0.00,,OVC085,0.00,0.00,VWS V14.01,2013-03-18 05:37:00,
2013-03-18 01:42:00,60.7,59.3,30.02,ESE,107,0.0,5.0,95,0.00,,OVC085,0.00,0.00,VWS V14.01,2013-03-18 05:42:00,
2013-03-18 01:47:00,60.6,58.9,30.02,SE,134,1.0,5.0,94,0.00,,OVC085,0.00,0.00,VWS V14.01,2013-03-18 05:47:00,
2013-03-18 01:52:00,60.6,59.2,30.02,SE,134,0.0,5.0,95,0.00,,OVC085,0.00,0.00,VWS V14.01,2013-03-18 05:52:00,
2013-03-18 01:57:00,60.6,59.2,30.03,SE,134,1.0,5.0,95,0.00,,OVC085,0.00,0.00,VWS V14.01,2013-03-18 05:57:00,
2013-03-18 02:00:00,60.6,59.2,30.02,SE,134,0.0,5.0,95,0.00,,,0.00,0.00,VWS V15.00,2013-03-18 06:00:00,
2013-03-18 02:02:00,60.6,59.2,30.02,SE,134,0.0,0.0,95,0.00,,OVC075,0.00,0.00,VWS V14.01,2013-03-18 06:02:00,
2013-03-18 02:07:00,60.7,59.3,30.03,SE,134,2.0,2.0,95,0.00,,OVC075,0.00,0.00,VWS V14.01,2013-03-18 06:07:00,
2013-03-18 02:13:00,60.7,59.3,30.02,SE,134,0.0,2.0,95,0.00,,OVC075,0.00,0.00,VWS V14.01,2013-03-18 06:13:00,
2013-03-18 02:18:00,60.7,59.3,30.02,SE,134,0.0,2.0,95,0.00,,OVC075,0.00,0.00,VWS V14.01,2013-03-18 06:18:00,
2013-03-18 02:23:00,60.5,59.1,30.02,SE,134,2.0,2.0,95,0.00,,BKN060,0.00,0.00,VWS V14.01,2013-03-18 06:23:00,
2013-03-18 02:28:00,60.5,59.1,30.02,SE,134,0.0,2.0,95,0.00,,BKN060,0.00,0.00,VWS V14.01,2013-03-18 06:28:00,
2013-03-18 02:30:00,60.5,59.1,30.01,SE,134,0.0,2.0,95,0.00,,,0.00,0.00,VWS V15.00,2013-03-18 06:30:00,
2013-03-18 02:33:00,60.5,59.1,30.01,SE,134,0.0,0.0,95,0.00,,BKN060,0.00,0.00,VWS V14.01,2013-03-18 06:33:00,
2013-03-18 02:38:00,60.6,59.2,30.01,SE,134,0.0,0.0,95,0.00,,BKN060,0.00,0.00,VWS V14.01,2013-03-18 06:38:00,
2013-03-18 02:43:00,60.6,59.2,30.02,SE,134,1.0,2.0,95,0.00,,BKN050,0.00,0.00,VWS V14.01,2013-03-18 06:43:00,
2013-03-18 02:48:00,60.5,59.1,30.02,SE,134,1.0,2.0,95,0.00,,BKN050,0.00,0.00,VWS V14.01,2013-03-18 06:48:00,
2013-03-18 02:53:00,60.4,59.0,30.02,ESE,119,2.0,3.0,95,0.00,,BKN050,0.00,0.00,VWS V14.01,2013-03-18 06:53:00,
2013-03-18 02:58:00,60.2,58.8,30.02,NE,51,0.0,3.0,95,0.00,,BKN050,0.00,0.00,VWS V14.01,2013-03-18 06:58:00,
2013-03-18 03:00:00,60.2,58.8,30.02,NE,51,0.0,3.0,95,0.00,,,0.00,0.00,VWS V15.00,2013-03-18 07:00:00,
2013-03-18 03:03:00,60.1,58.7,30.01,NE,51,0.0,0.0,95,0.00,,BKN120,0.00,0.00,VWS V14.01,2013-03-18 07:03:00,
2013-03-18 03:08:00,60.1,59.0,30.01,NE,51,0.0,0.0,96,0.00,,BKN120,0.00,0.00,VWS V14.01,2013-03-18 07:08:00,
2013-03-18 03:13:00,59.9,58.8,30.00,NE,51,0.0,1.0,96,0.00,,BKN120,0.00,0.00,VWS V14.01,2013-03-18 07:13:00,
2013-03-18 03:18:00,59.8,58.7,30.01,NE,51,0.0,1.0,96,0.00,,BKN120,0.00,0.00,VWS V14.01,2013-03-18 07:18:00,
2013-03-18 03:23:00,59.7,58.6,30.00,NE,51,0.0,1.0,96,0.00,,BKN120,0.00,0.00,VWS V14.01,2013-03-18 07:23:00,
2013-03-18 03:28:00,59.8,58.7,30.00,NE,51,0.0,1.0,96,0.00,,BKN120,0.00,0.00,VWS V14.01,2013-03-18 07:28:00,
2013-03-18 03:30:00,59.8,58.7,30.00,NE,51,0.0,1.0,96,0.00,,,0.00,0.00,VWS V15.00,2013-03-18 07:30:00,
2013-03-18 03:33:00,59.8,58.7,30.00,NE,51,0.0,0.0,96,0.00,,BKN120,0.00,0.00,VWS V14.01,2013-03-18 07:33:00,
2013-03-18 03:38:00,59.7,58.6,30.00,NE,51,1.0,1.0,96,0.00,,BKN110,0.00,0.00,VWS V14.01,2013-03-18 07:38:00,
2013-03-18 03:43:00,59.5,58.4,30.00,NNE,24,2.0,3.0,96,0.00,,BKN110,0.00,0.00,VWS V14.01,2013-03-18 07:43:00,
2013-03-18 03:48:00,59.6,58.5,30.01,NNW,329,2.0,3.0,96,0.00,,BKN110,0.00,0.00,VWS V14.01,2013-03-18 07:48:00,
2013-03-18 03:53:00,59.7,58.6,30.01,NNW,329,3.0,4.0,96,0.00,,BKN110,0.00,0.00,VWS V14.01,2013-03-18 07:53:00,
2013-03-18 03:58:00,59.8,58.7,30.01,NNW,329,2.0,4.0,96,0.00,,BKN110,0.00,0.00,VWS V14.01,2013-03-18 07:58:00,
2013-03-18 04:00:00,59.9,58.8,30.01,NNW,329,0.0,4.0,96,0.00,,,0.00,0.00,VWS V15.00,2013-03-18 08:00:00,
2013-03-18 04:03:00,59.9,58.8,30.01,NNW,329,2.0,2.0,96,0.00,,BKN110,0.00,0.00,VWS V14.01,2013-03-18 08:03:00,
2013-03-18 04:08:00,59.9,58.8,30.01,NNW,329,0.0,2.0,96,0.00,,BKN110,0.00,0.00,VWS V14.01,2013-03-18 08:08:00,
2013-03-18 04:13:00,59.8,58.7,30.01,NNW,329,0.0,2.0,96,0.00,,BKN110,0.00,0.00,VWS V14.01,2013-03-18 08:13:00,
2013-03-18 04:18:00,59.7,58.6,30.00,NNW,329,0.0,2.0,96,0.00,,BKN110,0.00,0.00,VWS V14.01,2013-03-18 08:18:00,
2013-03-18 04:23:00,59.6,58.5,30.00,NNW,329,0.0,2.0,96,0.00,,BKN110,0.00,0.00,VWS V14.01,2013-03-18 08:23:00,
2013-03-18 04:28:00,59.6,58.5,30.00,NNW,329,2.0,2.0,96,0.00,,BKN110,0.00,0.00,VWS V14.01,2013-03-18 08:28:00,
2013-03-18 04:30:00,59.7,58.6,30.00,NNW,329,1.0,2.0,96,0.00,,,0.00,0.00,VWS V15.00,2013-03-18 08:30:00,
2013-03-18 04:33:00,59.8,59.0,30.00,NNW,329,2.0,2.0,97,0.00,,BKN110,0.00,0.00,VWS V14.01,2013-03-18 08:33:00,
2013-03-18 04:38:00,59.9,59.0,29.99,SSW,210,0.0,2.0,97,0.00,,BKN120,0.00,0.00,VWS V14.01,2013-03-18 08:38:00,
2013-03-18 04:43:00,59.9,59.0,29.99,SSW,210,0.0,2.0,97,0.00,,BKN120,0.00,0.00,VWS V14.01,2013-03-18 08:43:00,
2013-03-18 04:48:00,59.9,59.0,29.99,SSE,156,2.0,3.0,97,0.00,,BKN120,0.00,0.00,VWS V14.01,2013-03-18 08:48:00,
2013-03-18 04:53:00,60.0,59.2,29.99,SSE,154,3.0,4.0,97,0.00,,BKN120,0.00,0.00,VWS V14.01,2013-03-18 08:53:00,
2013-03-18 04:58:00,60.1,59.2,29.98,SE,142,4.0,5.0,97,0.00,,BKN120,0.00,0.00,VWS V14.01,2013-03-18 08:58:00,
2013-03-18 05:03:00,60.1,59.2,29.98,SSE,153,2.0,4.0,97,0.00,,BKN120,0.00,0.00,VWS V14.01,2013-03-18 09:03:00,
2013-03-18 05:08:00,60.0,59.2,29.99,SSE,153,1.0,4.0,97,0.00,,FEW120,0.00,0.00,VWS V14.01,2013-03-18 09:08:00,
2013-03-18 05:14:00,59.7,58.8,29.99,SSE,153,1.0,4.0,97,0.00,,FEW120,0.00,0.00,VWS V14.01,2013-03-18 09:14:00,
2013-03-18 05:19:00,59.6,58.8,29.99,SSE,153,0.0,4.0,97,0.00,,SCT120,0.00,0.00,VWS V14.01,2013-03-18 09:19:00,
2013-03-18 05:24:00,59.9,59.0,29.99,SSE,153,1.0,4.0,97,0.00,,SCT120,0.00,0.00,VWS V14.01,2013-03-18 09:24:00,
2013-03-18 05:29:00,59.8,59.0,29.99,SSE,153,0.0,4.0,97,0.00,,SCT120,0.00,0.00,VWS V14.01,2013-03-18 09:29:00,
2013-03-18 05:34:00,59.8,59.0,30.00,SSE,153,0.0,0.0,97,0.00,,SCT120,0.00,0.00,VWS V14.01,2013-03-18 09:34:00,
2013-03-18 05:39:00,59.6,58.8,30.00,SSE,153,0.0,1.0,97,0.00,,BKN120,0.00,0.00,VWS V14.01,2013-03-18 09:39:00,
2013-03-18 05:44:00,59.5,58.7,30.00,SSE,153,1.0,2.0,97,0.00,,BKN120,0.00,0.00,VWS V14.01,2013-03-18 09:44:00,
2013-03-18 05:49:00,59.3,58.5,30.00,SSE,153,0.0,2.0,97,0.00,,BKN120,0.00,0.00,VWS V14.01,2013-03-18 09:49:00,
2013-03-18 05:54:00,59.3,58.5,30.00,SSE,153,0.0,2.0,97,0.01,,BKN120,0.01,0.00,VWS V14.01,2013-03-18 09:54:00,
2013-03-18 05:59:00,59.3,58.5,30.01,SSE,153,0.0,2.0,97,0.01,,BKN120,0.01,0.00,VWS V14.01,2013-03-18 09:59:00,
2013-03-18 06:04:00,59.5,58.7,30.01,SSE,153,0.0,1.0,97,0.01,,SCT120,0.01,0.00,VWS V14.01,2013-03-18 10:04:00,
2013-03-18 06:09:00,59.7,58.8,30.01,SSE,153,0.0,3.0,97,0.01,,SCT120,0.01,0.00,VWS V14.01,2013-03-18 10:09:00,
2013-03-18 06:14:00,59.7,58.8,30.01,SSE,153,1.0,3.0,97,0.01,,SCT120,0.01,0.00,VWS V14.01,2013-03-18 10:14:00,
2013-03-18 06:20:00,59.8,59.0,30.01,SSE,153,0.0,3.0,97,0.01,,SCT120,0.01,0.00,VWS V14.01,2013-03-18 10:20:00,
2013-03-18 06:25:00,59.9,59.0,30.01,SSE,153,1.0,3.0,97,0.01,,SCT120,0.01,0.00,VWS V14.01,2013-03-18 10:25:00,
2013-03-18 06:30:00,60.0,59.2,30.01,SSE,153,1.0,3.0,97,0.01,,SCT120,0.01,0.00,VWS V14.01,2013-03-18 10:30:00,
2013-03-18 06:35:00,60.2,59.3,30.02,SSE,163,2.0,4.0,97,0.01,,SCT120,0.01,0.00,VWS V14.01,2013-03-18 10:35:00,
2013-03-18 06:40:00,60.2,59.3,30.02,SE,140,3.0,4.0,97,0.01,,OVC110,0.01,0.00,VWS V14.01,2013-03-18 10:40:00,
2013-03-18 06:45:00,60.4,59.5,30.01,ESE,123,4.0,6.0,97,0.01,,OVC110,0.01,0.00,VWS V14.01,2013-03-18 10:45:00,
2013-03-18 06:50:00,60.5,59.7,30.01,SE,128,4.0,7.0,97,0.01,,OVC110,0.01,0.00,VWS V14.01,2013-03-18 10:50:00,
2013-03-18 06:55:00,60.5,59.7,30.01,SE,132,5.0,7.0,97,0.01,,OVC110,0.01,0.00,VWS V14.01,2013-03-18 10:55:00,
2013-03-18 07:00:00,60.5,59.7,30.01,ESE,113,3.0,7.0,97,0.01,,OVC110,0.01,0.00,VWS V14.01,2013-03-18 11:00:00,
2013-03-18 07:05:00,60.5,59.4,30.01,ESE,122,3.0,5.0,96,0.00,,,0.01,0.00,VWS V14.01,2013-03-18 11:05:00,
2013-03-18 07:10:00,60.5,59.4,30.01,SE,137,3.0,6.0,96,0.00,,,0.01,0.00,VWS V14.01,2013-03-18 11:10:00,
2013-03-18 07:15:00,60.6,59.5,30.01,SE,141,4.0,6.0,96,0.00,,,0.01,0.00,VWS V14.01,2013-03-18 11:15:00,
2013-03-18 07:20:00,60.7,59.6,30.01,SE,146,6.0,7.0,96,0.00,,,0.01,0.00,VWS V14.01,2013-03-18 11:20:00,
2013-03-18 07:25:00,60.8,59.7,30.01,ESE,123,5.0,8.0,96,0.00,,,0.01,0.00,VWS V14.01,2013-03-18 11:25:00,
2013-03-18 07:30:00,60.9,59.8,30.01,ESE,110,5.0,8.0,96,0.00,,,0.01,0.00,VWS V14.01,2013-03-18 11:30:00,
2013-03-18 07:35:00,61.0,59.9,30.00,SE,134,5.0,7.0,96,0.00,,,0.01,0.00,VWS V14.01,2013-03-18 11:35:00,
2013-03-18 07:40:00,61.1,59.7,30.00,SE,125,3.0,7.0,95,0.00,,,0.01,0.00,VWS V14.01,2013-03-18 11:40:00,
2013-03-18 07:45:00,61.2,59.8,30.01,ESE,123,3.0,7.0,95,0.00,,,0.01,0.00,VWS V14.01,2013-03-18 11:45:00,
2013-03-18 07:50:00,61.2,59.8,30.01,SE,138,2.0,7.0,95,0.00,,,0.01,7.00,VWS V14.01,2013-03-18 11:50:00,
2013-03-18 07:55:00,61.3,59.9,30.02,SSE,154,1.0,7.0,95,0.00,,,0.01,12.00,VWS V14.01,2013-03-18 11:55:00,
2013-03-18 08:00:00,61.4,59.7,30.02,SSW,212,1.0,7.0,94,0.00,,BKN110,0.01,16.00,VWS V14.01,2013-03-18 12:00:00,
2013-03-18 08:05:00,61.6,59.9,30.03,SSW,206,3.0,4.0,94,0.00,,BKN110,0.01,28.00,VWS V14.01,2013-03-18 12:05:00,
2013-03-18 08:10:00,61.8,59.8,30.03,SSW,206,2.0,4.0,93,0.00,,BKN110,0.01,46.00,VWS V14.01,2013-03-18 12:10:00,
2013-03-18 08:15:00,61.9,59.9,30.03,SSW,206,3.0,4.0,93,0.00,,BKN110,0.01,54.00,VWS V14.01,2013-03-18 12:15:00,
2013-03-18 08:20:00,62.1,60.1,30.03,South,186,2.0,4.0,93,0.00,,BKN110,0.01,63.00,VWS V14.01,2013-03-18 12:20:00,
2013-03-18 08:25:00,62.3,60.2,30.02,SE,145,2.0,4.0,93,0.00,,BKN110,0.01,83.00,VWS V14.01,2013-03-18 12:25:00,
2013-03-18 08:30:00,62.6,60.5,30.03,South,186,2.0,4.0,93,0.00,,BKN110,0.01,120.00,VWS V14.01,2013-03-18 12:30:00,
2013-03-18 08:35:00,63.2,60.8,30.02,SE,142,4.0,5.0,92,0.00,,BKN110,0.01,127.00,VWS V14.01,2013-03-18 12:35:00,
2013-03-18 08:40:00,63.3,60.6,30.02,SE,133,3.0,7.0,91,0.00,,BKN110,0.01,46.00,VWS V14.01,2013-03-18 12:40:00,
2013-03-18 08:45:00,63.2,60.5,30.01,SSE,148,3.0,8.0,91,0.00,,BKN110,0.01,42.00,VWS V14.01,2013-03-18 12:45:00,
2013-03-18 08:50:00,63.2,60.5,30.02,SE,124,4.0,8.0,91,0.00,,BKN110,0.01,44.00,VWS V14.01,2013-03-18 12:50:00,
2013-03-18 08:55:00,63.2,60.5,30.02,SE,135,3.0,8.0,91,0.00,,BKN110,0.01,46.00,VWS V14.01,2013-03-18 12:55:00,
2013-03-18 09:00:00,63.2,60.5,30.02,SE,129,3.0,8.0,91,0.00,,BKN110,0.01,60.00,VWS V14.01,2013-03-18 13:00:00,
2013-03-18 09:05:00,63.3,60.6,30.02,SE,128,1.0,2.0,91,0.00,,BKN110,0.01,72.00,VWS V14.01,2013-03-18 13:05:00,
2013-03-18 09:10:00,63.4,60.7,30.02,SE,128,0.0,2.0,91,0.00,,BKN110,0.01,86.00,VWS V14.01,2013-03-18 13:10:00,
2013-03-18 09:15:00,63.7,61.0,30.03,SE,128,0.0,2.0,91,0.00,,BKN110,0.01,98.00,VWS V14.01,2013-03-18 13:15:00,
2013-03-18 09:20:00,63.9,60.9,30.03,SE,128,0.0,2.0,90,0.00,,BKN110,0.01,156.00,VWS V14.01,2013-03-18 13:20:00,
2013-03-18 09:25:00,64.2,61.2,30.04,SE,128,0.0,2.0,90,0.00,,BKN110,0.01,185.00,VWS V14.01,2013-03-18 13:25:00,
2013-03-18 09:30:00,64.7,61.4,30.03,SE,128,1.0,2.0,89,0.00,,BKN110,0.01,232.00,VWS V14.01,2013-03-18 13:30:00,
2013-03-18 09:35:00,65.2,61.6,30.04,SSE,149,1.0,2.0,88,0.00,,BKN110,0.01,264.00,VWS V14.01,2013-03-18 13:35:00,
2013-03-18 09:40:00,65.4,61.8,30.04,SSW,203,3.0,5.0,88,0.00,,BKN110,0.01,176.00,VWS V14.01,2013-03-18 13:40:00,
2013-03-18 09:45:00,65.6,61.6,30.04,SSE,165,2.0,6.0,87,0.00,,BKN110,0.01,229.00,VWS V14.01,2013-03-18 13:45:00,
2013-03-18 09:50:00,66.1,62.1,30.04,SSW,202,4.0,7.0,87,0.00,,BKN110,0.01,188.00,VWS V14.01,2013-03-18 13:50:00,
2013-03-18 09:55:00,66.1,62.1,30.04,South,174,2.0,7.0,87,0.00,,BKN110,0.01,160.00,VWS V14.01,2013-03-18 13:55:00,
2013-03-18 10:00:00,66.1,62.1,30.04,SSW,198,3.0,7.0,87,0.00,,BKN110,0.01,160.00,VWS V14.01,2013-03-18 14:00:00,
2013-03-18 10:05:00,66.2,61.9,30.04,SSE,163,4.0,5.0,86,0.00,,BKN110,0.01,123.00,VWS V14.01,2013-03-18 14:05:00,
2013-03-18 10:10:00,66.4,62.4,30.05,SSW,201,1.0,5.0,87,0.00,,BKN110,0.01,153.00,VWS V14.01,2013-03-18 14:10:00,
2013-03-18 10:16:00,66.8,62.8,30.05,SE,133,1.0,5.0,87,0.00,,BKN110,0.01,204.00,VWS V14.01,2013-03-18 14:16:00,
2013-03-18 10:21:00,67.3,63.0,30.05,SSE,167,4.0,6.0,86,0.00,,BKN110,0.01,359.00,VWS V14.01,2013-03-18 14:21:00,
2013-03-18 10:26:00,68.0,63.3,30.05,SSW,200,1.0,6.0,85,0.00,,BKN110,0.01,394.00,VWS V14.01,2013-03-18 14:26:00,
2013-03-18 10:31:00,68.9,63.9,30.05,SE,128,5.0,7.0,84,0.00,,BKN110,0.01,613.00,VWS V14.01,2013-03-18 14:31:00,
2013-03-18 10:36:00,68.8,63.1,30.05,SSW,208,5.0,7.0,82,0.00,,BKN110,0.01,316.00,VWS V14.01,2013-03-18 14:36:00,
2013-03-18 10:41:00,69.0,64.0,30.05,SSE,162,6.0,8.0,84,0.00,,BKN110,0.01,325.00,VWS V14.01,2013-03-18 14:41:00,
2013-03-18 10:46:00,69.2,63.5,30.05,SW,216,5.0,8.0,82,0.00,,BKN110,0.01,388.00,VWS V14.01,2013-03-18 14:46:00,
2013-03-18 10:51:00,69.9,64.5,30.06,SSE,156,3.0,10.0,83,0.00,,BKN110,0.01,334.00,VWS V14.01,2013-03-18 14:51:00,
2013-03-18 10:56:00,70.5,64.4,30.05,SW,229,7.0,10.0,81,0.00,,BKN110,0.01,408.00,VWS V14.01,2013-03-18 14:56:00,
2013-03-18 11:01:00,71.1,64.6,30.05,SW,217,7.0,7.0,80,0.00,,BKN100,0.01,533.00,VWS V14.01,2013-03-18 15:01:00,
2013-03-18 11:07:00,71.9,65.0,30.05,SSW,194,7.0,15.0,79,0.00,,BKN100,0.01,534.00,VWS V14.01,2013-03-18 15:07:00,
2013-03-18 11:12:00,71.8,64.9,30.05,South,190,8.0,15.0,79,0.00,,BKN100,0.01,401.00,VWS V14.01,2013-03-18 15:12:00,
2013-03-18 11:17:00,72.1,65.2,30.04,SE,144,6.0,15.0,79,0.00,,BKN100,0.01,388.00,VWS V14.01,2013-03-18 15:17:00,
2013-03-18 11:22:00,71.9,65.0,30.04,SE,144,7.0,15.0,79,0.00,,BKN100,0.01,359.00,VWS V14.01,2013-03-18 15:22:00,
2013-03-18 11:27:00,71.9,64.7,30.04,SSW,196,5.0,15.0,78,0.00,,BKN100,0.01,373.00,VWS V14.01,2013-03-18 15:27:00,
2013-03-18 11:32:00,72.7,65.8,30.04,South,190,9.0,9.0,79,0.00,,BKN100,0.01,469.00,VWS V14.01,2013-03-18 15:32:00,
2013-03-18 11:37:00,73.3,65.7,30.04,SSW,210,8.0,9.0,77,0.00,,BKN100,0.01,394.00,VWS V14.01,2013-03-18 15:37:00,
2013-03-18 11:42:00,73.0,65.0,30.04,SE,142,5.0,12.0,76,0.00,,BKN100,0.01,360.00,VWS V14.01,2013-03-18 15:42:00,
2013-03-18 11:47:00,72.7,65.1,30.03,SSW,209,5.0,12.0,77,0.00,,BKN100,0.01,193.00,VWS V14.01,2013-03-18 15:47:00,
2013-03-18 11:52:00,72.5,64.9,30.03,South,185,4.0,12.0,77,0.00,,BKN100,0.01,146.00,VWS V14.01,2013-03-18 15:52:00,
2013-03-18 11:57:00,72.6,65.0,30.03,South,175,3.0,12.0,77,0.00,,BKN100,0.01,169.00,VWS V14.01,2013-03-18 15:57:00,
2013-03-18 12:00:00,72.7,65.4,30.03,SW,219,4.0,12.0,78,0.00,,,0.01,246.00,VWS V15.00,2013-03-18 16:00:00,
2013-03-18 12:02:00,72.8,65.6,30.03,South,171,6.0,7.0,78,0.00,,BKN100,0.01,278.00,VWS V14.01,2013-03-18 16:02:00,
2013-03-18 12:07:00,73.1,65.8,30.03,SW,217,6.0,10.0,78,0.00,,BKN100,0.01,338.00,VWS V14.01,2013-03-18 16:07:00,
2013-03-18 12:12:00,74.0,66.3,30.03,South,179,4.0,11.0,77,0.00,,BKN100,0.01,411.00,VWS V14.01,2013-03-18 16:12:00,
2013-03-18 12:17:00,73.8,64.6,30.03,SW,232,6.0,13.0,73,0.00,,BKN100,0.01,357.00,VWS V14.01,2013-03-18 16:17:00,
2013-03-18 12:22:00,73.9,65.1,30.03,SSW,213,4.0,13.0,74,0.00,,BKN100,0.01,313.00,VWS V14.01,2013-03-18 16:22:00,
2013-03-18 12:27:00,73.9,65.1,30.03,SW,227,8.0,13.0,74,0.00,,BKN100,0.01,204.00,VWS V14.01,2013-03-18 16:27:00,
2013-03-18 12:30:00,73.7,64.1,30.02,SW,236,5.0,13.0,72,0.00,,,0.01,218.00,VWS V15.00,2013-03-18 16:30:00,
2013-03-18 12:32:00,73.7,64.5,30.02,SSW,192,4.0,8.0,73,0.00,,BKN100,0.01,202.00,VWS V14.01,2013-03-18 16:32:00,
2013-03-18 12:37:00,73.5,64.3,30.02,SW,220,6.0,9.0,73,0.00,,BKN100,0.01,151.00,VWS V14.01,2013-03-18 16:37:00,
2013-03-18 12:42:00,73.4,64.6,30.02,South,180,5.0,10.0,74,0.00,,BKN100,0.01,160.00,VWS V14.01,2013-03-18 16:42:00,
2013-03-18 12:47:00,73.7,64.9,30.02,SSE,150,5.0,10.0,74,0.00,,BKN100,0.01,167.00,VWS V14.01,2013-03-18 16:47:00,
2013-03-18 12:52:00,74.0,65.6,30.02,SSW,202,3.0,10.0,75,0.00,,BKN100,0.01,214.00,VWS V14.01,2013-03-18 16:52:00,
2013-03-18 12:58:00,74.1,64.9,30.02,South,191,5.0,10.0,73,0.00,,BKN100,0.01,250.00,VWS V14.01,2013-03-18 16:58:00,
2013-03-18 13:00:00,74.1,64.5,30.02,SSW,208,4.0,10.0,72,0.00,,,0.01,246.00,VWS V15.00,2013-03-18 17:00:00,
2013-03-18 13:03:00,74.1,64.5,30.02,SW,219,5.0,7.0,72,0.00,,BKN100,0.01,241.00,VWS V14.01,2013-03-18 17:03:00,
2013-03-18 13:08:00,74.2,64.6,30.02,South,171,6.0,10.0,72,0.00,,SCT110,0.01,272.00,VWS V14.01,2013-03-18 17:08:00,
2013-03-18 13:13:00,74.3,64.7,30.02,SW,221,2.0,10.0,72,0.00,,SCT110,0.01,350.00,VWS V14.01,2013-03-18 17:13:00,
2013-03-18 13:18:00,74.6,65.0,30.01,SW,224,3.0,10.0,72,0.00,,SCT110,0.01,316.00,VWS V14.01,2013-03-18 17:18:00,
2013-03-18 13:23:00,75.2,66.0,30.00,South,180,8.0,10.0,73,0.00,,SCT110,0.01,373.00,VWS V14.01,2013-03-18 17:23:00,
2013-03-18 13:28:00,74.9,64.5,30.00,SSW,210,6.0,10.0,70,0.00,,SCT110,0.01,471.00,VWS V14.01,2013-03-18 17:28:00,
2013-03-18 13:30:00,75.3,65.7,30.00,SSW,211,6.0,10.0,72,0.00,,,0.01,471.00,VWS V15.00,2013-03-18 17:30:00,
2013-03-18 13:33:00,75.6,65.1,30.00,SSW,194,6.0,9.0,70,0.00,,SCT110,0.01,886.00,VWS V14.01,2013-03-18 17:33:00,
2013-03-18 13:38:00,76.4,66.3,30.00,SSE,165,8.0,10.0,71,0.00,,SCT110,0.01,445.00,VWS V14.01,2013-03-18 17:38:00,
2013-03-18 13:43:00,76.3,65.8,30.00,SSW,192,8.0,10.0,70,0.00,,SCT110,0.01,483.00,VWS V14.01,2013-03-18 17:43:00,
2013-03-18 13:48:00,76.5,65.2,30.00,SW,233,6.0,11.0,68,0.00,,SCT110,0.01,396.00,VWS V14.01,2013-03-18 17:48:00,
2013-03-18 13:53:00,76.0,65.1,30.00,SSW,204,4.0,11.0,69,0.00,,SCT110,0.01,385.00,VWS V14.01,2013-03-18 17:53:00,
2013-03-18 13:58:00,76.6,65.3,29.99,SSW,209,8.0,11.0,68,0.00,,SCT110,0.01,413.00,VWS V14.01,2013-03-18 17:58:00,
2013-03-18 14:00:00,76.8,65.0,29.99,South,190,5.0,11.0,67,0.00,,,0.01,403.00,VWS V15.00,2013-03-18 18:00:00,
2013-03-18 14:03:00,76.7,64.9,29.99,South,188,6.0,8.0,67,0.00,,SCT120,0.01,378.00,VWS V14.01,2013-03-18 18:03:00,
2013-03-18 14:08:00,76.8,65.4,29.98,SSW,192,10.0,11.0,68,0.00,,SCT120,0.01,483.00,VWS V14.01,2013-03-18 18:08:00,
2013-03-18 14:13:00,76.5,64.7,29.98,SSW,211,6.0,12.0,67,0.00,,SCT120,0.01,378.00,VWS V14.01,2013-03-18 18:13:00,
2013-03-18 14:18:00,76.5,64.7,29.98,SSW,200,4.0,12.0,67,0.00,,SCT120,0.01,378.00,VWS V14.01,2013-03-18 18:18:00,
2013-03-18 14:23:00,76.6,64.8,29.98,South,188,8.0,12.0,67,0.00,,SCT120,0.01,512.00,VWS V14.01,2013-03-18 18:23:00,
2013-03-18 14:28:00,76.4,64.6,29.97,South,186,2.0,12.0,67,0.00,,SCT120,0.01,302.00,VWS V14.01,2013-03-18 18:28:00,
2013-03-18 14:33:00,76.3,65.4,29.97,SW,217,4.0,9.0,69,0.00,,SCT120,0.01,288.00,VWS V14.01,2013-03-18 18:33:00,
2013-03-18 14:38:00,76.4,65.5,29.96,South,186,5.0,9.0,69,0.00,,SCT120,0.01,294.00,VWS V14.01,2013-03-18 18:38:00,
2013-03-18 15:03:00,76.6,65.7,29.96,South,182,4.0,9.0,69,0.00,,SCT120,0.01,318.00,VWS V14.01,2013-03-18 19:03:00,
2013-03-18 15:08:00,78.7,64.1,29.95,SSW,194,5.0,12.0,61,0.00,,SCT120,0.01,504.00,VWS V14.01,2013-03-18 19:08:00,
2013-03-18 15:13:00,78.0,63.9,29.95,SSW,194,10.0,18.0,62,0.00,,SCT120,0.01,355.00,VWS V14.01,2013-03-18 19:13:00,
2013-03-18 15:18:00,77.5,63.9,29.94,South,185,10.0,18.0,63,0.00,,SCT120,0.01,283.00,VWS V14.01,2013-03-18 19:18:00,
2013-03-18 15:23:00,77.3,64.2,29.94,SSW,205,10.0,18.0,64,0.00,,SCT120,0.01,311.00,VWS V14.01,2013-03-18 19:23:00,
2013-03-18 15:28:00,77.3,64.2,29.94,SSW,198,6.0,18.0,64,0.00,,SCT120,0.01,485.00,VWS V14.01,2013-03-18 19:28:00,
2013-03-18 15:30:00,77.5,64.4,29.94,SSW,213,6.0,18.0,64,0.00,,,0.01,443.00,VWS V15.00,2013-03-18 19:30:00,
2013-03-18 15:34:00,77.7,64.6,29.93,SW,221,8.0,9.0,64,0.00,,SCT120,0.01,352.00,VWS V14.01,2013-03-18 19:34:00,
2013-03-18 15:39:00,77.7,64.6,29.93,SW,221,11.0,12.0,64,0.00,,SCT120,0.01,274.00,VWS V14.01,2013-03-18 19:39:00,
2013-03-18 15:44:00,77.3,64.6,29.94,SSW,198,4.0,12.0,65,0.00,,SCT120,0.01,251.00,VWS V14.01,2013-03-18 19:44:00,
2013-03-18 15:49:00,77.3,64.6,29.93,South,183,4.0,12.0,65,0.00,,SCT120,0.01,299.00,VWS V14.01,2013-03-18 19:49:00,
2013-03-18 15:54:00,77.3,64.6,29.93,South,187,5.0,12.0,65,0.00,,SCT120,0.01,355.00,VWS V14.01,2013-03-18 19:54:00,
2013-03-18 15:59:00,77.5,64.4,29.93,SSE,163,9.0,12.0,64,0.00,,SCT120,0.01,329.00,VWS V14.01,2013-03-18 19:59:00,
2013-03-18 16:04:00,77.5,64.4,29.93,SSW,200,5.0,9.0,64,0.00,,SCT035,0.01,292.00,VWS V14.01,2013-03-18 20:04:00,
2013-03-18 16:09:00,77.3,64.6,29.92,West,266,3.0,10.0,65,0.00,,SCT035,0.01,383.00,VWS V14.01,2013-03-18 20:09:00,
2013-03-18 16:14:00,77.4,64.7,29.92,South,176,4.0,11.0,65,0.00,,SCT035,0.01,302.00,VWS V14.01,2013-03-18 20:14:00,
2013-03-18 16:19:00,77.6,64.9,29.92,SW,216,8.0,11.0,65,0.00,,SCT035,0.01,285.00,VWS V14.01,2013-03-18 20:19:00,
2013-03-18 16:24:00,77.2,64.1,29.93,SW,226,6.0,11.0,64,0.00,,SCT035,0.01,272.00,VWS V14.01,2013-03-18 20:24:00,
2013-03-18 16:29:00,77.4,64.7,29.93,South,178,8.0,11.0,65,0.00,,SCT035,0.01,285.00,VWS V14.01,2013-03-18 20:29:00,
2013-03-18 16:30:00,77.4,64.7,29.93,South,191,5.0,11.0,65,0.00,,,0.01,294.00,VWS V15.00,2013-03-18 20:30:00,
2013-03-18 16:34:00,77.3,64.6,29.93,South,186,5.0,13.0,65,0.00,,SCT035,0.01,265.00,VWS V14.01,2013-03-18 20:34:00,
2013-03-18 16:39:00,77.2,64.5,29.92,SSW,213,8.0,13.0,65,0.00,,SCT035,0.01,292.00,VWS V14.01,2013-03-18 20:39:00,
2013-03-18 16:44:00,77.2,64.5,29.93,SSW,204,6.0,13.0,65,0.00,,SCT035,0.01,336.00,VWS V14.01,2013-03-18 20:44:00,
2013-03-18 16:49:00,77.2,64.5,29.93,SW,234,3.0,13.0,65,0.00,,SCT035,0.01,295.00,VWS V14.01,2013-03-18 20:49:00,
2013-03-18 16:54:00,77.3,64.6,29.93,SW,223,7.0,13.0,65,0.00,,SCT035,0.01,415.00,VWS V14.01,2013-03-18 20:54:00,
2013-03-18 16:59:00,77.5,64.8,29.93,WSW,249,3.0,13.0,65,0.00,,SCT037,0.01,262.00,VWS V14.01,2013-03-18 20:59:00,
2013-03-18 17:00:00,77.5,64.8,29.93,SW,235,6.0,13.0,65,0.00,,,0.01,241.00,VWS V15.00,2013-03-18 21:00:00,
2013-03-18 17:04:00,77.5,64.8,29.93,West,264,4.0,8.0,65,0.00,,SCT037,0.01,193.00,VWS V14.01,2013-03-18 21:04:00,
2013-03-18 17:09:00,77.0,64.8,29.93,SW,229,6.0,10.0,66,0.00,,SCT037,0.01,197.00,VWS V14.01,2013-03-18 21:09:00,
2013-03-18 17:14:00,77.0,64.8,29.92,SSW,197,5.0,10.0,66,0.00,,SCT037,0.01,188.00,VWS V14.01,2013-03-18 21:14:00,
2013-03-18 17:19:00,76.8,65.0,29.92,SE,142,4.0,10.0,67,0.00,,SCT037,0.01,163.00,VWS V14.01,2013-03-18 21:19:00,
2013-03-18 17:24:00,76.8,65.0,29.92,South,178,7.0,10.0,67,0.00,,SCT037,0.01,137.00,VWS V14.01,2013-03-18 21:24:00,
2013-03-18 17:29:00,76.7,64.9,29.92,South,173,4.0,11.0,67,0.00,,SCT037,0.01,135.00,VWS V14.01,2013-03-18 21:29:00,
2013-03-18 17:34:00,76.6,64.8,29.92,South,173,5.0,8.0,67,0.00,,SCT037,0.01,137.00,VWS V14.01,2013-03-18 21:34:00,
2013-03-18 17:39:00,76.6,64.8,29.91,South,187,7.0,8.0,67,0.00,,SCT037,0.01,151.00,VWS V14.01,2013-03-18 21:39:00,
2013-03-18 17:44:00,76.5,64.7,29.91,SSW,207,7.0,8.0,67,0.00,,SCT037,0.01,135.00,VWS V14.01,2013-03-18 21:44:00,
2013-03-18 17:49:00,76.5,65.2,29.92,SW,227,3.0,8.0,68,0.00,,SCT037,0.01,113.00,VWS V14.01,2013-03-18 21:49:00,
2013-03-18 17:54:00,76.5,64.7,29.92,SW,217,2.0,8.0,67,0.00,,SCT037,0.01,107.00,VWS V14.01,2013-03-18 21:54:00,
2013-03-18 17:59:00,76.5,64.7,29.92,South,178,3.0,8.0,67,0.00,,SCT037,0.01,97.00,VWS V14.01,2013-03-18 21:59:00,
2013-03-18 18:00:00,76.5,64.7,29.92,SSW,199,4.0,8.0,67,0.00,,,0.01,98.00,VWS V15.00,2013-03-18 22:00:00,
2013-03-18 18:04:00,76.4,65.1,29.91,SSW,192,4.0,6.0,68,0.00,,SCT037,0.01,90.00,VWS V14.01,2013-03-18 22:04:00,
2013-03-18 18:09:00,76.2,64.9,29.91,South,171,2.0,6.0,68,0.00,,SCT037,0.01,79.00,VWS V14.01,2013-03-18 22:09:00,
2013-03-18 18:14:00,76.2,64.9,29.91,SW,221,3.0,6.0,68,0.00,,SCT037,0.01,70.00,VWS V14.01,2013-03-18 22:14:00,
2013-03-18 18:19:00,76.2,64.9,29.91,SSW,207,2.0,6.0,68,0.00,,SCT037,0.01,62.00,VWS V14.01,2013-03-18 22:19:00,
2013-03-18 18:24:00,76.1,64.8,29.91,South,190,4.0,6.0,68,0.00,,SCT037,0.01,56.00,VWS V14.01,2013-03-18 22:24:00,
2013-03-18 18:29:00,76.0,64.7,29.91,SE,140,4.0,6.0,68,0.00,,SCT037,0.01,58.00,VWS V14.01,2013-03-18 22:29:00,
2013-03-18 18:30:00,75.9,65.0,29.91,South,175,3.0,6.0,69,0.00,,,0.01,60.00,VWS V15.00,2013-03-18 22:30:00,
2013-03-18 18:34:00,75.9,65.0,29.90,SSE,157,2.0,4.0,69,0.00,,SCT037,0.01,65.00,VWS V14.01,2013-03-18 22:34:00,
2013-03-18 18:39:00,75.9,65.0,29.90,South,177,2.0,6.0,69,0.00,,SCT037,0.01,69.00,VWS V14.01,2013-03-18 22:39:00,
2013-03-18 18:45:00,75.9,65.0,29.91,SSW,194,3.0,6.0,69,0.00,,SCT037,0.01,62.00,VWS V14.01,2013-03-18 22:45:00,
2013-03-18 18:50:00,75.9,65.0,29.92,SSW,213,2.0,6.0,69,0.00,,SCT037,0.01,49.00,VWS V14.01,2013-03-18 22:50:00,
2013-03-18 18:55:00,75.9,65.0,29.92,SSW,209,0.0,6.0,69,0.00,,SCT037,0.01,33.00,VWS V14.01,2013-03-18 22:55:00,
2013-03-18 19:00:00,75.8,64.9,29.92,SSW,209,2.0,6.0,69,0.00,,SCT037,0.01,26.00,VWS V14.01,2013-03-18 23:00:00,
2013-03-18 19:05:00,75.6,65.1,29.92,SW,221,2.0,2.0,70,0.00,,OVC110,0.01,19.00,VWS V14.01,2013-03-18 23:05:00,
2013-03-18 19:10:00,75.3,65.3,29.92,SSW,213,1.0,3.0,71,0.00,,OVC110,0.01,16.00,VWS V14.01,2013-03-18 23:10:00,
2013-03-18 19:15:00,75.1,65.1,29.92,South,188,2.0,6.0,71,0.00,,OVC110,0.01,14.00,VWS V14.01,2013-03-18 23:15:00,
2013-03-18 19:20:00,74.9,64.9,29.91,South,175,3.0,6.0,71,0.00,,OVC110,0.01,9.00,VWS V14.01,2013-03-18 23:20:00,
2013-03-18 19:25:00,74.7,64.7,29.91,SSE,163,3.0,6.0,71,0.00,,OVC110,0.01,7.00,VWS V14.01,2013-03-18 23:25:00,
2013-03-18 19:30:00,74.6,65.0,29.91,South,173,3.0,6.0,72,0.00,,OVC110,0.01,5.00,VWS V14.01,2013-03-18 23:30:00,
2013-03-18 19:35:00,74.4,64.8,29.92,SSW,206,1.0,4.0,72,0.00,,OVC110,0.01,0.00,VWS V14.01,2013-03-18 23:35:00,
2013-03-18 19:40:00,74.3,64.7,29.92,SW,215,2.0,4.0,72,0.00,,OVC110,0.01,0.00,VWS V14.01,2013-03-18 23:40:00,
2013-03-18 19:45:00,74.2,65.0,29.92,WNW,284,3.0,4.0,73,0.00,,OVC110,0.01,0.00,VWS V14.01,2013-03-18 23:45:00,
2013-03-18 19:50:00,73.9,64.7,29.93,WSW,253,2.0,4.0,73,0.00,,OVC110,0.01,0.00,VWS V14.01,2013-03-18 23:50:00,
2013-03-18 19:55:00,73.9,65.1,29.92,SSW,196,2.0,5.0,74,0.00,,OVC110,0.01,0.00,VWS V14.01,2013-03-18 23:55:00,
2013-03-18 20:00:00,73.7,64.9,29.91,SE,140,4.0,5.0,74,0.00,,OVC110,0.01,0.00,VWS V14.01,2013-03-19 00:00:00,
2013-03-18 20:05:00,73.4,65.0,29.91,SE,140,4.0,5.0,75,0.00,,CLR,0.01,0.00,VWS V14.01,2013-03-19 00:05:00,
2013-03-18 20:10:00,73.0,65.0,29.92,SSE,165,1.0,5.0,76,0.00,,CLR,0.01,0.00,VWS V14.01,2013-03-19 00:10:00,
2013-03-18 20:15:00,72.5,64.9,29.92,SSE,165,0.0,5.0,77,0.00,,CLR,0.01,0.00,VWS V14.01,2013-03-19 00:15:00,
2013-03-18 20:20:00,72.3,64.7,29.92,SSE,165,2.0,5.0,77,0.00,,CLR,0.01,0.00,VWS V14.01,2013-03-19 00:20:00,
2013-03-18 20:25:00,72.4,65.2,29.91,SSE,148,4.0,5.0,78,0.00,,CLR,0.01,0.00,VWS V14.01,2013-03-19 00:25:00,
2013-03-18 20:30:00,72.5,64.9,29.91,SSE,147,5.0,5.0,77,0.00,,CLR,0.01,0.00,VWS V14.01,2013-03-19 00:30:00,
2013-03-18 20:35:00,72.5,65.3,29.92,SSE,161,3.0,7.0,78,0.00,,CLR,0.01,0.00,VWS V14.01,2013-03-19 00:35:00,
2013-03-18 20:40:00,72.5,65.3,29.91,SSE,163,4.0,7.0,78,0.00,,CLR,0.01,0.00,VWS V14.01,2013-03-19 00:40:00,
2013-03-18 20:45:00,72.5,65.3,29.91,SSE,161,4.0,7.0,78,0.00,,CLR,0.01,0.00,VWS V14.01,2013-03-19 00:45:00,
2013-03-18 20:50:00,72.5,65.6,29.91,SSE,163,5.0,8.0,79,0.00,,CLR,0.01,0.00,VWS V14.01,2013-03-19 00:50:00,
2013-03-18 20:55:00,72.4,65.5,29.91,SSE,165,4.0,8.0,79,0.00,,CLR,0.01,0.00,VWS V14.01,2013-03-19 00:55:00,
2013-03-18 21:00:00,72.3,65.4,29.90,SSE,167,4.0,8.0,79,0.00,,CLR,0.01,0.00,VWS V14.01,2013-03-19 01:00:00,
2013-03-18 21:05:00,72.1,65.6,29.90,SE,140,6.0,7.0,80,0.00,,CLR,0.01,0.00,VWS V14.01,2013-03-19 01:05:00,
2013-03-18 21:10:00,72.0,65.5,29.90,SSE,149,5.0,8.0,80,0.00,,CLR,0.01,0.00,VWS V14.01,2013-03-19 01:10:00,
2013-03-18 21:15:00,71.9,65.4,29.90,South,181,6.0,9.0,80,0.00,,CLR,0.01,0.00,VWS V14.01,2013-03-19 01:15:00,
2013-03-18 21:20:00,71.7,65.2,29.90,South,174,6.0,9.0,80,0.00,,CLR,0.01,0.00,VWS V14.01,2013-03-19 01:20:00,
2013-03-18 21:25:00,71.6,65.5,29.90,SE,145,5.0,9.0,81,0.00,,CLR,0.01,0.00,VWS V14.01,2013-03-19 01:25:00,
2013-03-18 21:30:00,71.4,65.3,29.90,South,187,7.0,9.0,81,0.00,,CLR,0.01,0.00,VWS V14.01,2013-03-19 01:30:00,
2013-03-18 21:35:00,71.3,65.2,29.90,South,178,5.0,9.0,81,0.00,,CLR,0.01,0.00,VWS V14.01,2013-03-19 01:35:00,
2013-03-18 21:40:00,71.2,65.1,29.90,South,174,5.0,9.0,81,0.00,,CLR,0.01,0.00,VWS V14.01,2013-03-19 01:40:00,
2013-03-18 21:45:00,71.1,65.0,29.91,South,191,4.0,9.0,81,0.00,,CLR,0.01,0.00,VWS V14.01,2013-03-19 01:45:00,
2013-03-18 21:50:00,70.9,65.1,29.90,SE,132,8.0,9.0,82,0.00,,CLR,0.01,0.00,VWS V14.01,2013-03-19 01:50:00,
2013-03-18 21:55:00,70.7,65.3,29.90,SSE,158,6.0,11.0,83,0.00,,CLR,0.01,0.00,VWS V14.01,2013-03-19 01:55:00,
2013-03-18 22:00:00,70.6,65.2,29.90,SSE,167,6.0,11.0,83,0.00,,CLR,0.01,0.00,VWS V14.01,2013-03-19 02:00:00,
2013-03-18 22:05:00,70.4,65.0,29.90,South,186,3.0,9.0,83,0.00,,CLR,0.01,0.00,VWS V14.01,2013-03-19 02:05:00,
2013-03-18 22:10:00,70.3,65.2,29.90,SSW,192,5.0,9.0,84,0.00,,CLR,0.01,0.00,VWS V14.01,2013-03-19 02:10:00,
2013-03-18 22:15:00,70.2,65.1,29.90,SSW,199,5.0,9.0,84,0.00,,CLR,0.01,0.00,VWS V14.01,2013-03-19 02:15:00,
2013-03-18 22:20:00,70.2,65.1,29.91,South,181,5.0,9.0,84,0.00,,CLR,0.01,0.00,VWS V14.01,2013-03-19 02:20:00,
2013-03-18 22:25:00,70.2,65.1,29.91,South,182,4.0,9.0,84,0.00,,CLR,0.01,0.00,VWS V14.01,2013-03-19 02:25:00,
2013-03-18 22:30:00,70.1,64.7,29.90,SSE,166,7.0,11.0,83,0.00,,CLR,0.01,0.00,VWS V14.01,2013-03-19 02:30:00,
2013-03-18 22:35:00,70.1,64.7,29.91,South,186,3.0,9.0,83,0.00,,CLR,0.01,0.00,VWS V14.01,2013-03-19 02:35:00,
2013-03-18 22:40:00,70.0,64.6,29.90,South,189,4.0,11.0,83,0.00,,CLR,0.01,0.00,VWS V14.01,2013-03-19 02:40:00,
2013-03-18 22:45:00,70.0,64.6,29.91,SSE,162,7.0,11.0,83,0.00,,CLR,0.01,0.00,VWS V14.01,2013-03-19 02:45:00,
2013-03-18 22:50:00,69.9,64.5,29.91,SSW,213,7.0,11.0,83,0.00,,CLR,0.01,0.00,VWS V14.01,2013-03-19 02:50:00,
2013-03-18 22:55:00,69.8,64.4,29.92,SSW,208,7.0,11.0,83,0.00,,CLR,0.01,0.00,VWS V14.01,2013-03-19 02:55:00,
2013-03-18 23:00:00,69.7,64.3,29.92,SSW,198,3.0,11.0,83,0.00,,CLR,0.01,0.00,VWS V14.01,2013-03-19 03:00:00,
2013-03-18 23:05:00,69.5,64.5,29.92,South,188,3.0,8.0,84,0.00,,CLR,0.01,0.00,VWS V14.01,2013-03-19 03:05:00,
2013-03-18 23:11:00,69.4,64.4,29.91,South,180,5.0,8.0,84,0.00,,CLR,0.01,0.00,VWS V14.01,2013-03-19 03:11:00,
2013-03-18 23:16:00,69.2,64.2,29.91,South,183,2.0,9.0,84,0.00,,CLR,0.01,0.00,VWS V14.01,2013-03-19 03:16:00,
2013-03-18 23:21:00,69.0,64.3,29.91,South,182,1.0,9.0,85,0.00,,CLR,0.01,0.00,VWS V14.01,2013-03-19 03:21:00,
2013-03-18 23:26:00,69.0,64.3,29.92,SSW,200,2.0,9.0,85,0.00,,CLR,0.01,0.00,VWS V14.01,2013-03-19 03:26:00,
2013-03-18 23:30:00,68.8,64.1,29.92,South,190,1.0,9.0,85,0.00,,,0.01,0.00,VWS V15.00,2013-03-19 03:30:00,
2013-03-18 23:31:00,68.8,64.1,29.92,South,190,1.0,9.0,85,0.00,,CLR,0.01,0.00,VWS V14.01,2013-03-19 03:31:00,
2013-03-18 23:36:00,68.7,64.3,29.92,SSW,213,4.0,5.0,86,0.00,,CLR,0.01,0.00,VWS V14.01,2013-03-19 03:36:00,
2013-03-18 23:41:00,68.6,64.2,29.93,SW,232,2.0,5.0,86,0.00,,CLR,0.01,0.00,VWS V14.01,2013-03-19 03:41:00,
2013-03-18 23:46:00,68.5,64.2,29.93,West,261,1.0,5.0,86,0.00,,CLR,0.01,0.00,VWS V14.01,2013-03-19 03:46:00,
2013-03-18 23:51:00,68.3,64.0,29.93,West,261,1.0,5.0,86,0.00,,CLR,0.01,0.00,VWS V14.01,2013-03-19 03:51:00,
2013-03-18 23:56:00,68.0,64.0,29.94,West,261,0.0,5.0,87,0.00,,CLR,0.01,0.00,VWS V14.01,2013-03-19 03:56:00,